Location: Bailey Volunteer Fire Department
(33.4359°N, 96.1680°W)
Time: 16:29:47
(UTC+00:00)

BREEZE-M DEB (TANK) - Pass Details

Date: 13 December 2025
Orbit: 457 x 14803 km, 45.9° (Epoch: 12 January)

Event Time Altitude Azimuth Distance (km) Brightness Sun altitude
Exits shadow 12:06:09 21° 297° (WNW) 2,018 5.0 -15.1°
Maximum altitude 12:09:38 61° 222° (SW) 722 3.2 -14.4°
Drops below altitude 10° 12:12:41 10° 141° (SE) 1,645 6.2 -13.8°
Sets 12:14:20 0° 136° (SE) 2,454 7.3 -13.4°
